Location: Broletto
(44.6000°N, 10.5833°E)
Time: 02:07:28
(UTC+00:00)

Lacrosse 5 rocket - Pass Details

Date: 18 April 2021
Orbit: 460 x 634 km, 57.0° (Epoch: 08 May)

Event Time Altitude Azimuth Distance (km) Brightness Sun altitude
Rises 19:25:42 0° 280° (W) 2,668 6.2 -13.7°
Reaches altitude 10° 19:28:24 10° 299° (WNW) 1,816 5.4 -14.1°
Maximum altitude 19:31:21 19° 346° (NNW) 1,382 4.0 -14.6°
Drops below altitude 10° 19:34:26 10° 31° (NNE) 1,897 4.1 -15.0°
Sets 19:37:20 0° 50° (NE) 2,834 4.8 -15.4°
